Theta_e
309 309 309 310 310 310 310 310 310 311 311 311 311 311 311 311 311 311 311 311 311 311 310 310 310 310 310 310 310 311 311 312 312 313 316 316 313 313 313 313 313 312 313 312 312 313 313 314 315 314 316 316 316 317 316 316 316 318 320 318 317 318 319 319 319 319 319 319 317 316 316 317 317 316 315 315 315 316 317 316 316 316 315 315 315 315 315 315
309 309 309 310 310 310 310 310 310 311 311 311 311 311 311 311 311 311 311 311 311 311 310 310 310 310 310 310 310 311 311 311 313 314 315 314 313 313 313 312 313 312 312 312 312 314 314 316 315 315 317 317 316 317 318 318 317 320 321 318 318 319 319 319 319 319 319 319 318 317 317 317 317 317 315 315 316 317 317 317 317 316 316 316 315 315 315 315
309 309 309 310 310 310 310 310 311 311 311 311 311 311 311 311 311 311 311 311 311 311 310 310 310 310 309 310 310 310 311 311 314 315 314 314 314 313 313 313 313 312 313 312 312 314 315 316 316 316 317 317 317 317 319 318 317 319 320 318 318 320 319 318 319 318 317 318 318 317 316 318 317 317 316 316 317 317 317 317 318 317 317 317 316 315 315 315
309 309 309 310 310 310 310 310 310 311 311 311 311 311 311 311 311 311 311 311 311 311 311 310 310 310 309 310 310 311 312 313 316 315 313 314 314 313 314 314 314 314 314 313 313 313 314 315 316 316 317 317 317 317 318 317 318 318 316 317 318 318 318 317 317 316 316 317 318 318 316 317 317 316 317 317 317 317 318 317 318 318 317 318 317 315 315 315
309 309 309 310 310 310 310 310 310 311 311 311 311 311 311 311 310 310 311 311 311 311 311 310 310 310 310 310 310 312 314 315 316 315 313 314 314 314 315 315 315 315 314 313 313 313 314 316 316 317 318 318 317 317 318 316 317 318 316 317 317 317 318 316 315 315 315 316 317 317 316 316 317 315 316 317 317 317 318 317 318 317 317 319 318 316 316 315
309 309 309 309 310 310 310 310 311 311 311 311 311 311 311 310 310 310 311 311 311 311 310 310 310 310 310 310 310 311 315 316 315 314 314 314 315 315 316 316 316 316 315 313 313 314 315 317 316 317 318 318 317 317 317 315 316 318 317 316 316 317 317 315 314 313 314 316 317 317 317 317 316 316 317 317 317 317 318 317 317 317 316 318 317 316 315 315
309 309 309 310 310 310 310 310 310 311 311 311 311 311 311 310 310 310 311 311 311 310 310 310 310 310 309 310 310 311 314 316 315 314 314 314 316 316 316 316 316 316 316 315 315 315 316 317 317 318 318 317 317 317 317 316 317 317 317 316 316 316 316 315 314 313 313 316 317 316 316 316 316 316 317 316 317 317 317 317 316 316 315 315 315 315 315 315
309 309 309 309 310 310 310 310 311 311 311 311 311 311 311 310 310 310 311 310 310 310 310 310 309 310 310 310 311 313 315 316 314 314 314 316 316 315 315 315 315 316 316 316 316 316 317 317 317 318 318 317 317 317 317 317 318 318 317 316 316 316 316 314 313 313 313 315 315 315 316 316 317 316 316 316 316 317 317 316 316 315 315 315 315 315 315 315
309 309 309 309 310 310 310 310 310 310 311 311 311 311 311 310 310 310 310 310 310 310 310 310 309 310 310 309 312 315 316 315 314 314 314 315 315 314 314 313 314 315 315 317 317 316 317 318 318 318 318 318 318 317 317 318 318 317 317 317 317 317 316 314 314 314 314 315 314 315 317 317 316 315 316 317 317 317 317 316 316 316 315 315 315 315 315 315
309 309 309 309 310 310 310 310 310 310 311 311 311 311 310 310 310 310 310 310 310 310 309 309 309 310 310 310 312 315 316 314 313 314 314 313 313 313 313 313 314 315 315 316 317 317 317 318 318 317 318 318 318 317 317 318 317 317 317 317 318 317 316 315 316 315 315 316 315 316 318 317 316 315 317 319 318 318 317 316 316 316 316 315 315 315 315 315
309 309 309 309 310 310 310 310 310 310 310 311 311 311 311 310 310 309 309 309 309 309 309 309 309 310 310 311 312 315 314 313 313 313 313 313 312 313 313 314 315 315 316 316 316 316 317 317 317 317 318 318 317 317 317 316 316 317 317 318 317 317 317 316 317 316 316 316 315 316 317 317 316 315 318 319 318 318 317 317 317 317 317 316 316 315 315 315
309 309 309 309 309 310 310 310 310 310 310 311 311 311 310 310 310 308 308 308 308 309 309 309 309 310 310 311 314 315 313 313 313 313 313 313 312 313 315 316 316 316 316 317 317 317 317 316 317 317 317 318 318 317 316 315 316 317 317 318 318 318 318 317 318 317 316 317 315 316 316 317 317 316 318 319 318 318 317 318 318 318 317 316 316 316 316 316
309 309 309 309 309 309 310 310 309 309 310 311 311 311 310 310 309 307 307 308 308 309 309 309 310 310 310 313 314 314 314 313 313 314 313 313 312 313 315 316 316 316 316 317 317 317 317 316 317 317 317 318 318 317 316 316 317 317 317 318 318 318 318 318 318 316 316 316 316 316 315 317 319 319 319 319 318 317 317 318 318 318 318 317 316 316 317 317
309 309 309 309 309 309 309 309 309 309 310 310 311 310 310 309 307 307 307 307 308 308 309 309 309 309 311 314 313 312 315 315 314 313 313 313 312 313 315 316 316 316 316 316 317 317 317 317 317 316 317 317 317 316 317 317 317 318 318 317 318 317 317 318 318 317 317 316 316 316 315 317 319 320 320 319 317 317 317 318 318 319 318 318 317 316 317 316
309 309 309 309 309 309 309 309 309 309 310 310 310 310 309 307 306 306 307 307 308 308 308 308 309 310 312 314 313 312 313 314 314 314 313 313 313 313 315 316 316 315 316 316 316 317 317 317 317 317 316 316 316 317 318 317 317 318 315 316 319 316 316 318 317 317 317 316 316 316 316 317 319 320 318 318 317 316 317 318 319 319 319 318 317 317 317 316
309 309 309 309 309 309 309 309 309 309 310 310 309 308 307 306 306 306 307 307 308 307 308 309 309 311 313 314 313 312 312 312 314 315 313 313 313 314 315 316 316 315 316 316 316 316 316 316 317 317 316 316 317 318 318 316 317 317 315 315 319 317 315 318 316 316 317 316 316 316 316 317 319 319 318 318 318 316 317 319 319 319 319 319 318 317 317 317
309 309 309 309 309 308 309 309 309 309 309 309 308 306 305 306 306 306 307 307 307 307 308 310 309 310 313 314 314 313 312 312 313 315 314 313 313 315 315 316 316 316 316 316 316 316 316 316 316 316 317 317 317 317 317 315 314 317 316 315 318 317 315 316 316 316 316 316 317 317 316 317 317 319 318 318 318 317 318 318 318 319 319 319 318 317 317 317
308 308 308 308 309 308 309 308 308 308 307 306 306 305 305 306 306 306 306 307 307 307 308 310 310 310 312 313 314 314 313 312 312 314 315 313 313 314 315 316 316 316 317 316 316 317 317 317 316 317 317 316 317 317 315 314 314 317 317 315 315 316 314 314 316 316 316 316 316 317 317 317 317 318 319 318 318 318 318 318 318 318 318 319 319 318 318 318
307 308 308 308 308 308 307 307 306 306 305 305 305 305 305 306 306 306 306 306 308 309 310 311 311 312 313 312 313 314 313 312 312 313 314 314 313 314 316 316 316 316 317 317 317 317 318 317 317 318 317 316 317 316 316 316 315 316 317 315 315 315 315 316 317 315 316 316 316 316 316 317 317 318 319 318 319 319 319 319 319 318 318 318 319 318 318 318
306 307 307 307 307 306 305 305 305 305 305 305 305 305 307 308 308 309 309 308 310 312 313 312 312 313 315 313 313 314 313 313 313 313 314 314 314 315 316 316 317 317 316 317 318 317 318 318 317 317 317 317 317 316 316 316 315 315 316 316 315 316 315 316 318 315 316 316 316 317 317 317 317 317 318 319 319 319 319 319 319 319 319 319 319 319 318 318
305 306 306 305 305 305 305 305 305 305 305 305 305 307 310 311 311 312 311 310 310 312 313 313 312 313 314 313 312 314 315 314 314 314 314 314 315 316 317 317 317 316 316 319 318 317 317 317 317 317 317 318 317 317 316 315 315 315 316 316 316 316 316 316 318 315 315 315 316 317 317 317 318 318 319 319 319 319 319 319 320 320 319 320 320 319 319 319
306 306 306 305 305 305 305 305 305 305 306 306 305 308 311 311 311 312 311 310 310 309 311 312 311 312 313 312 312 313 315 316 316 315 314 314 316 316 317 316 316 316 317 318 317 316 316 316 317 317 317 316 316 316 315 315 316 316 316 317 316 317 317 316 318 316 315 315 316 317 317 317 318 318 319 319 319 319 320 319 319 320 320 320 320 320 320 319
308 307 307 307 306 306 307 307 307 307 306 306 306 307 310 310 311 310 309 312 312 309 309 311 312 312 312 312 312 313 315 317 316 316 314 314 316 316 317 316 315 317 317 316 315 315 315 316 317 317 316 315 315 315 315 316 316 317 317 316 316 319 317 314 317 317 316 316 316 317 318 318 319 318 318 319 319 319 320 320 320 320 320 320 320 320 321 321
309 309 308 308 308 308 308 308 308 308 308 307 307 307 308 309 310 310 310 313 313 311 310 309 311 313 313 313 313 313 315 316 316 317 314 314 316 316 316 316 315 316 316 315 315 315 316 316 316 316 316 315 315 316 316 315 316 317 318 317 316 319 317 315 317 318 317 317 317 318 318 318 320 320 320 321 321 321 321 321 321 321 321 321 320 320 319 320
310 309 309 309 309 309 309 309 309 309 309 309 308 308 308 308 309 310 312 312 312 312 311 309 310 312 312 312 312 314 315 314 315 317 314 314 316 315 316 317 316 316 315 315 315 314 316 315 315 316 315 316 317 316 317 317 315 316 319 319 317 317 317 317 319 319 316 316 318 319 317 316 319 321 321 322 321 320 321 321 322 321 321 321 320 320 318 318
311 310 309 309 309 309 309 308 309 309 309 309 309 309 308 309 309 310 311 311 312 312 311 311 312 312 312 312 313 314 313 313 315 315 314 314 316 315 315 315 316 315 316 315 315 316 316 314 315 318 317 318 318 316 318 318 315 315 319 319 318 318 318 319 320 318 315 316 319 319 317 316 318 318 319 320 320 319 320 320 321 321 321 322 321 320 319 318
312 311 310 310 309 309 309 309 309 309 309 309 309 308 308 308 309 310 310 311 312 313 313 312 312 313 313 313 313 312 312 314 314 314 315 315 315 315 314 315 314 315 317 316 315 316 316 315 316 318 318 319 318 317 319 318 315 318 319 318 318 319 320 320 320 319 317 319 320 319 319 318 317 318 319 320 319 319 319 319 320 322 321 322 322 321 320 319
313 312 311 310 310 309 309 310 309 308 309 309 308 308 308 309 309 310 310 311 313 314 314 312 311 312 314 313 312 312 312 314 315 315 315 314 315 315 314 315 315 314 317 315 314 315 317 317 318 318 318 319 318 318 320 318 317 319 318 318 319 319 320 320 320 319 320 320 319 320 320 317 316 318 319 319 318 318 319 319 320 321 322 323 323 322 321 320
313 312 312 311 310 310 310 310 310 309 309 309 308 308 309 309 310 310 310 311 315 314 312 312 312 312 313 312 312 313 312 314 315 316 315 314 315 315 314 315 315 315 316 315 316 317 316 315 316 318 318 318 317 315 317 319 318 317 317 318 319 319 319 320 320 319 320 320 319 321 320 314 313 317 319 319 318 318 319 319 320 320 321 324 323 321 320 320
314 313 312 312 311 311 310 310 310 309 309 309 308 308 309 310 310 310 311 312 315 315 312 312 313 313 313 312 312 313 312 314 315 315 315 315 315 315 315 315 316 316 316 316 317 316 314 312 314 317 317 316 315 313 315 318 318 317 318 319 319 319 319 319 320 319 318 318 319 321 320 314 313 317 319 319 319 319 319 318 319 320 320 322 323 321 320 319
316 314 313 312 312 311 310 311 310 309 309 309 308 308 310 311 311 310 312 312 313 315 312 312 313 313 313 312 313 312 313 315 315 315 315 315 315 314 314 314 315 316 316 316 317 316 315 314 315 315 314 314 315 314 315 315 317 319 320 319 318 319 319 318 319 320 318 317 319 320 320 317 315 317 319 320 319 318 319 319 318 319 320 321 322 323 321 319
316 316 315 312 312 312 310 311 311 309 309 308 308 310 311 311 311 312 313 310 311 315 314 314 315 313 312 313 314 313 313 315 315 315 315 315 315 315 314 314 314 315 315 315 317 317 316 317 316 315 313 315 317 317 315 315 316 319 319 318 317 316 317 318 320 321 319 318 318 318 319 319 317 318 319 319 319 319 320 321 320 320 321 321 322 323 322 319
318 316 316 314 313 312 311 311 310 310 309 308 309 312 312 311 310 312 312 310 313 316 316 316 315 314 313 314 315 313 313 315 315 316 316 316 316 316 315 315 315 316 315 315 317 317 317 318 317 316 314 314 317 317 316 315 316 317 318 319 317 314 315 317 318 319 318 317 317 316 318 318 317 317 319 319 319 319 320 321 321 321 320 320 320 322 321 319
319 317 316 316 314 313 312 312 311 310 309 309 310 312 313 312 312 312 311 313 316 316 315 316 315 314 314 315 315 314 314 315 315 316 317 317 317 317 316 315 316 317 316 316 317 317 316 317 317 317 316 315 317 318 318 317 317 317 319 318 317 315 314 315 316 316 316 317 316 315 316 317 315 316 319 320 319 320 320 320 320 320 319 318 319 320 320 318
318 318 317 317 316 315 314 313 311 310 309 310 312 312 312 313 313 312 313 315 316 315 315 315 315 315 315 315 315 314 314 315 316 316 317 317 317 318 317 316 316 317 316 315 317 317 316 317 318 317 316 316 317 319 319 318 317 317 319 319 319 317 315 314 316 316 316 316 316 316 316 316 316 317 318 320 321 320 320 321 320 320 319 319 319 319 319 319
317 319 318 318 317 316 316 315 312 310 310 312 313 311 311 312 313 313 314 316 316 315 315 315 315 316 316 315 314 314 314 316 316 316 317 317 317 317 317 317 316 316 316 314 316 317 315 316 318 316 315 315 315 317 318 317 317 317 318 319 319 319 317 316 316 316 314 315 316 316 316 316 316 318 318 318 319 319 319 320 320 320 320 320 320 319 318 318
316 317 317 317 317 317 317 316 314 310 311 314 314 312 312 312 312 314 315 316 316 316 316 316 316 316 316 315 315 314 314 315 316 316 316 316 317 317 317 318 317 316 316 314 316 318 316 315 315 315 316 314 312 314 316 316 317 317 318 318 318 318 317 316 316 316 316 317 318 317 317 316 315 317 319 319 318 318 318 318 319 319 319 320 320 319 318 318
315 315 316 316 317 318 317 316 315 311 311 315 315 312 312 312 312 314 316 317 316 316 316 316 316 316 317 316 315 315 314 315 315 315 316 316 315 316 317 317 317 317 316 315 315 316 316 315 314 312 314 314 312 314 316 315 315 317 317 318 317 317 317 317 316 317 317 318 319 318 317 317 317 317 319 319 319 318 318 318 319 319 320 320 320 319 319 319
315 314 315 315 315 317 317 316 315 311 310 313 314 313 312 312 312 315 317 317 316 315 315 315 316 317 316 316 316 315 314 315 316 315 316 316 315 316 317 316 317 317 316 315 314 315 315 314 315 312 312 315 313 314 317 316 315 315 316 317 317 317 318 317 317 316 316 317 318 318 317 317 318 318 318 319 319 318 319 319 320 320 320 321 321 320 320 319
315 314 313 312 313 315 315 315 313 310 310 313 314 314 313 312 314 314 315 316 316 315 314 314 316 316 317 317 316 315 314 315 316 315 315 315 315 316 317 316 317 317 316 315 314 315 314 312 314 314 312 314 315 315 317 317 316 315 315 316 317 317 317 318 318 317 317 317 317 318 318 317 317 319 319 319 319 319 320 319 321 322 322 321 321 320 319 318
314 314 313 311 311 312 313 314 312 309 310 312 314 314 314 314 315 314 314 315 316 315 314 315 315 315 317 318 316 316 315 315 316 316 315 315 315 316 317 316 317 317 316 316 315 315 314 312 314 315 313 315 317 317 316 317 318 317 315 316 317 317 317 318 319 318 318 318 317 318 319 318 318 319 319 318 319 320 320 319 321 323 322 321 319 319 318 318
313 314 314 313 312 312 313 313 310 306 308 310 312 313 314 314 315 315 315 315 316 315 315 315 315 315 317 318 317 317 316 316 316 316 316 316 315 316 317 316 317 317 316 316 316 315 315 314 314 316 316 317 316 315 313 313 316 317 317 317 317 317 317 317 318 318 318 319 318 318 319 320 320 322 320 319 319 320 320 321 322 322 321 320 319 319 319 318
312 313 314 313 313 314 314 313 309 306 307 309 310 311 312 313 314 315 315 314 314 316 315 315 315 315 316 317 317 318 318 317 317 317 316 317 317 316 317 316 317 317 316 316 317 316 315 315 315 315 317 317 315 313 313 312 314 317 317 317 318 318 318 317 317 317 319 319 318 319 319 320 322 324 321 318 316 317 318 321 322 321 320 320 319 319 319 318
311 313 313 313 313 314 314 313 310 307 308 309 309 310 311 312 313 313 314 314 314 315 315 314 315 315 315 317 317 317 317 317 318 318 317 318 318 316 316 317 317 317 316 317 317 316 316 316 315 315 317 318 317 316 315 314 314 316 317 317 318 319 319 319 318 317 318 320 320 320 320 319 320 319 317 315 315 316 317 318 320 321 320 320 319 319 319 319
311 311 312 313 313 313 314 312 310 308 308 309 309 310 311 311 312 312 313 314 315 314 314 315 316 316 316 317 317 317 317 315 316 318 318 318 318 315 316 318 317 316 316 317 316 315 316 317 316 316 317 318 319 319 318 316 315 315 317 318 318 318 319 320 319 318 319 320 321 320 319 318 318 318 316 315 316 317 317 317 317 318 319 319 319 319 319 319
311 311 312 313 313 313 314 312 309 308 308 308 310 310 310 311 312 312 312 313 314 313 314 315 315 315 316 316 317 318 317 316 317 319 319 318 317 314 315 317 317 316 316 316 315 316 318 318 316 316 317 317 318 319 319 318 316 316 317 317 318 318 319 319 319 319 319 319 319 319 319 318 318 318 317 316 315 317 318 317 316 317 318 318 318 319 319 319
309 310 312 312 312 313 313 312 310 309 308 309 310 310 310 311 312 312 312 312 313 313 314 314 314 315 315 315 316 317 317 317 318 318 318 318 316 314 313 315 316 316 315 314 314 317 319 318 317 317 317 317 316 318 319 319 318 317 318 317 318 318 319 320 320 319 319 319 319 318 319 320 319 318 318 318 317 317 318 318 318 318 318 318 318 318 318 318
308 310 311 312 312 312 313 313 312 311 309 309 309 310 311 311 312 313 312 312 313 313 314 315 315 314 314 315 315 316 317 318 318 317 317 317 316 315 313 313 314 314 315 315 314 316 319 317 317 318 318 317 317 318 318 319 318 318 318 318 318 318 319 320 320 319 319 320 319 318 319 321 319 318 318 319 318 318 318 318 318 318 318 318 318 318 318 318
308 308 309 310 311 311 312 313 313 312 311 309 309 309 310 311 312 313 313 313 313 314 313 314 314 313 313 314 315 315 316 317 317 316 316 316 317 316 315 314 313 311 314 316 315 314 317 317 317 318 317 317 317 317 318 319 318 318 318 319 319 319 319 319 318 319 319 319 319 319 319 320 319 318 318 318 319 319 319 319 319 318 318 318 318 318 317 318
307 307 308 309 310 310 310 312 313 313 311 310 309 308 309 310 311 312 313 313 313 313 313 313 313 313 313 313 314 315 315 315 316 316 316 316 316 316 315 315 314 311 312 315 316 314 314 317 317 317 317 317 317 317 318 318 319 319 319 318 318 319 320 320 319 319 319 319 319 319 320 319 318 318 318 318 318 318 318 319 319 319 318 318 318 318 317 317
306 307 308 308 309 310 310 311 312 313 312 310 309 309 309 310 311 311 313 313 313 313 313 313 314 314 314 314 314 314 314 314 315 316 316 315 315 315 315 315 315 315 313 314 316 315 314 316 317 316 317 318 317 317 318 318 319 319 319 318 318 318 319 320 320 319 319 320 320 320 320 319 318 318 318 318 318 318 318 319 319 319 319 319 318 318 318 318
305 306 306 307 308 309 310 311 311 312 312 310 309 310 309 309 310 311 312 312 312 313 313 313 314 315 315 314 314 314 314 313 314 315 315 315 315 314 314 313 314 316 315 314 315 315 315 315 315 316 317 318 317 318 318 318 319 319 318 317 317 317 318 318 319 319 319 319 319 319 319 318 318 318 318 318 318 318 318 319 318 319 319 318 318 318 318 318
Wind_Speed
20 20 20 20 20 19 18 18 17 16 15 15 14 14 14 14 14 14 14 15 15 14 13 11 9 7 6 6 6 6 5 4 1 1 4 5 6 7 7 7 6 5 5 4 4 4 4 4 4 5 4 4 4 5 6 6 6 5 4 5 4 3 2 3 4 2 2 4 9 11 13 10 6 8 8 6 8 7 5 7 9 11 11 12 9 6 6 7
21 20 20 20 20 19 19 18 18 17 16 15 14 14 14 14 14 14 14 15 15 14 12 11 8 7 6 6 6 6 5 4 2 2 5 6 7 7 7 7 6 5 5 5 5 4 3 4 6 6 5 5 4 5 5 4 6 3 3 5 3 1 3 3 2 4 3 2 10 12 12 9 5 8 9 6 8 10 8 9 11 11 11 14 14 12 10 8
21 21 21 21 20 20 19 18 18 17 16 16 15 14 14 14 14 14 14 15 15 13 12 11 8 7 6 6 6 6 5 3 3 5 6 6 7 7 7 6 6 5 6 6 7 7 5 5 7 7 6 5 4 5 5 4 5 2 3 4 0 4 5 5 4 6 5 3 8 11 9 7 4 6 8 7 8 9 10 10 10 12 13 16 17 15 15 12
22 22 22 21 21 20 20 19 18 17 16 16 15 14 14 14 14 14 15 15 15 14 13 11 8 7 6 6 6 5 4 3 6 8 7 8 8 7 7 6 6 5 5 6 6 7 6 6 7 6 6 5 5 6 4 4 4 2 2 2 3 3 3 6 6 7 7 3 5 9 8 8 5 5 8 7 7 7 10 12 11 11 10 15 17 16 16 16
23 23 23 22 22 21 20 20 18 18 17 16 15 14 14 14 14 15 15 15 15 14 13 11 9 7 6 6 6 6 5 3 6 9 8 9 9 8 7 6 5 5 5 5 5 6 6 6 6 6 6 5 6 6 3 3 3 2 1 3 5 2 2 5 5 5 6 4 5 7 8 8 6 6 9 10 9 5 3 6 8 8 5 9 14 13 14 16
24 24 24 23 22 22 21 20 19 18 17 16 15 14 14 15 15 16 16 16 15 14 13 11 9 8 7 7 7 8 6 2 5 10 10 11 10 8 7 5 5 4 4 4 5 7 6 6 8 7 6 5 5 4 4 4 4 2 2 3 4 5 4 5 3 4 4 3 4 5 5 5 6 8 9 13 15 7 3 3 6 7 7 8 12 13 14 16
25 25 24 24 23 22 21 20 19 19 17 16 15 15 15 15 16 16 16 16 15 15 14 11 9 8 7 7 7 8 7 4 5 12 12 13 11 9 7 5 4 4 4 5 5 6 6 8 8 6 5 4 3 3 4 4 3 3 2 5 3 5 4 4 3 4 3 1 2 3 3 5 7 7 5 11 19 15 12 13 11 10 11 10 13 14 14 16
26 25 25 24 24 23 22 21 20 19 18 17 16 15 15 15 16 16 16 15 15 15 14 11 10 8 8 8 6 7 6 5 9 14 14 13 11 8 6 4 3 3 4 4 4 5 6 8 7 6 4 3 3 5 4 4 2 2 4 6 3 4 5 5 4 4 4 1 2 3 5 5 7 5 5 13 19 16 16 20 19 17 16 14 14 14 14 15
27 26 25 24 24 23 22 21 20 19 18 17 16 15 15 16 16 16 15 15 15 15 14 12 10 9 8 7 6 6 6 7 11 15 15 12 9 6 4 2 2 2 2 3 4 6 6 6 6 5 2 4 4 5 2 2 1 3 6 6 4 5 4 5 4 4 3 2 3 4 6 4 5 7 10 17 19 16 17 21 21 20 19 18 17 17 16 17
27 26 25 25 25 24 22 21 20 19 18 17 16 15 15 16 16 15 15 15 15 15 14 12 10 9 8 7 7 5 6 9 11 15 14 11 8 5 3 1 0 1 1 2 5 7 5 4 5 4 3 5 4 3 1 2 2 5 7 6 5 5 5 3 3 4 3 3 4 5 5 3 3 5 8 9 12 16 18 20 21 20 20 21 20 20 20 20
26 26 26 26 25 24 23 22 20 19 18 17 16 16 16 16 16 16 15 15 15 15 14 12 10 9 7 8 8 5 8 10 11 15 13 10 8 4 2 1 1 2 2 1 4 7 5 5 7 5 3 5 6 5 4 3 4 5 6 5 5 4 4 4 3 5 4 2 3 4 5 5 2 5 13 9 7 11 13 13 15 17 18 18 20 21 22 22
25 26 26 26 25 24 23 21 19 19 18 17 17 16 16 17 17 16 16 16 16 16 15 12 11 9 8 9 8 5 9 10 11 14 14 10 7 4 3 2 2 3 4 2 4 6 6 8 8 3 3 6 6 5 5 6 4 4 4 3 6 5 4 7 5 4 5 2 2 1 6 9 9 14 20 15 12 11 10 10 10 14 16 17 19 21 22 23
25 26 25 26 25 24 23 21 19 18 18 18 17 16 17 17 17 17 17 17 17 17 15 13 12 10 9 8 6 6 9 10 11 14 14 12 8 5 3 4 4 4 5 4 5 7 7 8 6 4 7 4 2 4 6 6 3 4 4 3 4 6 6 8 5 4 5 3 3 1 6 6 9 17 16 12 15 14 12 13 11 13 15 17 20 21 23 23
25 25 25 25 23 23 21 20 19 18 18 17 17 17 18 18 18 18 18 18 18 17 16 14 13 12 9 6 6 9 9 9 12 14 14 13 10 6 5 4 3 4 4 3 5 6 6 6 5 5 7 5 6 8 6 5 3 3 2 3 4 4 3 7 6 6 6 4 4 3 5 6 5 8 9 11 14 11 10 12 11 11 13 16 20 22 23 24
26 24 24 23 22 21 20 19 19 18 18 17 17 18 18 18 18 18 18 18 18 17 16 15 14 12 9 5 6 11 11 9 11 14 15 13 10 7 6 5 3 3 3 3 4 5 6 8 6 5 6 7 9 7 4 4 3 2 3 3 4 3 3 7 5 5 4 3 6 6 5 8 5 5 7 8 10 9 10 11 10 11 11 13 17 20 23 24
26 25 24 23 22 21 20 20 19 18 18 18 18 18 18 18 18 18 18 18 17 17 15 13 14 12 7 5 8 10 12 11 11 13 15 14 12 9 7 6 3 2 3 3 4 5 7 7 6 6 6 6 6 4 3 4 3 4 4 3 3 4 3 4 4 3 2 2 7 9 7 6 1 6 5 4 6 8 9 10 10 12 12 13 16 20 22 23
24 24 24 24 23 21 20 20 19 19 18 18 18 17 17 17 17 17 17 17 16 16 15 11 12 11 6 5 7 9 13 14 13 14 14 14 12 10 8 6 5 3 4 4 4 5 4 5 6 6 4 4 4 4 4 4 5 5 4 4 2 4 4 2 2 4 4 3 6 10 10 12 8 4 5 6 9 10 11 14 15 16 16 15 17 22 23 23
23 23 24 24 23 22 21 20 19 19 18 18 17 16 16 16 16 16 15 16 14 13 13 10 10 7 5 8 9 9 15 15 14 14 14 14 13 11 10 7 6 5 5 4 4 3 3 4 4 2 3 4 4 5 5 3 2 3 4 4 3 4 5 6 1 5 6 5 7 9 11 15 15 14 13 13 14 15 16 19 18 18 18 16 18 22 26 26
23 24 24 24 24 23 22 21 20 19 18 18 17 17 17 15 14 14 15 17 15 9 6 10 13 5 1 12 15 11 13 13 13 14 14 15 13 11 9 7 6 6 5 4 4 3 3 4 4 3 4 6 7 8 5 1 3 1 1 2 3 3 5 6 2 5 3 4 8 11 13 15 15 14 15 16 15 16 18 19 19 18 18 19 20 22 27 30
21 22 24 24 24 24 23 22 21 20 20 19 20 19 15 15 11 9 14 17 15 8 2 9 15 5 3 11 17 12 10 12 13 14 15 15 14 11 8 7 7 5 4 3 4 3 3 4 5 6 5 6 9 7 1 4 3 1 1 3 4 4 6 5 3 6 2 4 9 12 13 15 16 15 16 18 17 17 19 19 20 19 19 21 22 24 28 32
21 21 23 24 24 25 24 24 23 23 23 22 25 21 12 15 10 6 13 12 15 14 4 9 15 8 2 8 15 13 10 10 11 15 16 15 15 11 8 9 7 5 4 3 4 3 3 5 7 6 1 2 2 3 2 1 0 2 3 3 4 4 6 7 1 5 4 2 7 11 13 14 14 15 17 19 17 18 22 22 22 21 21 23 23 24 28 30
21 21 22 23 24 26 24 25 25 25 26 25 29 22 12 17 11 8 14 8 14 20 9 8 14 10 5 5 12 14 9 7 8 14 16 16 15 11 9 10 7 5 6 5 4 3 4 7 6 2 5 5 4 2 2 3 2 3 3 3 4 3 5 7 1 4 3 3 6 10 12 12 13 15 18 21 20 21 24 24 22 22 22 24 24 22 22 24
22 21 23 23 24 25 25 26 26 27 29 28 31 23 15 21 13 8 15 6 8 21 16 10 10 9 9 7 11 14 10 6 7 13 18 17 14 10 9 11 9 5 7 7 7 5 5 5 2 4 5 4 3 3 3 3 3 4 3 3 4 0 2 4 1 1 3 5 6 10 11 11 13 16 18 23 26 23 23 23 23 24 26 28 26 22 20 19
23 23 23 23 23 24 24 25 26 28 30 29 30 24 15 20 16 10 12 4 1 12 18 17 12 9 12 10 11 13 9 6 7 13 20 19 13 10 9 10 9 6 6 9 10 9 4 2 3 3 3 4 4 5 6 4 4 5 6 6 5 2 4 5 3 6 8 5 3 8 11 8 8 12 12 14 17 18 19 20 21 24 28 28 26 25 26 23
24 25 25 25 23 24 24 24 26 27 28 28 27 23 14 15 16 12 9 3 2 6 10 16 14 12 16 13 11 10 6 6 7 12 20 19 12 10 7 5 7 7 9 10 9 10 4 4 3 4 4 5 6 6 7 6 4 5 8 8 8 6 6 7 5 7 7 4 1 4 8 4 4 7 7 5 7 10 13 15 17 21 22 21 22 26 27 26
24 25 26 26 25 25 23 21 24 25 25 26 24 20 14 12 14 13 9 3 4 5 5 10 11 11 15 13 12 10 4 7 10 12 21 21 14 10 6 4 4 5 7 8 5 5 2 4 3 5 6 6 5 6 7 7 5 4 3 2 6 6 5 6 5 3 5 4 1 2 5 7 3 7 10 7 7 9 10 11 15 18 17 15 18 22 23 23
24 25 26 27 27 27 23 19 23 26 23 22 22 19 14 12 13 12 8 3 5 7 8 8 10 9 11 12 16 12 2 7 11 11 20 22 16 10 7 6 5 2 3 4 3 2 5 6 5 6 6 6 6 5 7 10 7 2 1 1 1 3 4 4 4 4 4 7 6 3 4 8 8 7 11 12 10 10 9 10 12 15 14 13 14 15 17 18
22 24 25 28 29 28 24 21 24 26 23 20 21 20 15 14 14 10 6 5 3 8 7 7 9 10 12 16 18 9 3 9 8 10 21 22 16 10 8 8 8 8 8 6 5 1 4 7 8 9 8 6 4 0 4 10 6 1 2 1 2 1 2 2 3 5 4 6 7 5 7 6 8 2 8 11 10 8 8 9 10 12 11 7 9 10 12 13
21 22 24 26 28 27 26 23 24 27 23 20 22 20 17 16 12 6 4 5 4 6 4 9 10 10 13 16 12 6 6 5 1 9 20 19 15 8 4 6 8 8 10 7 4 2 3 1 3 6 6 4 3 6 2 4 2 3 5 4 4 2 1 2 4 3 3 6 6 7 9 4 9 3 8 7 7 7 6 7 7 9 8 4 6 10 11 12
18 21 24 25 27 28 27 24 24 26 23 20 22 22 19 15 8 5 5 4 4 4 5 8 10 11 16 14 8 7 7 2 4 12 13 9 11 6 1 4 3 3 6 3 2 2 3 2 1 2 2 2 6 6 6 3 4 8 7 4 3 3 2 2 3 1 3 7 5 8 13 7 7 2 8 5 5 6 5 5 5 7 8 6 7 11 12 13
18 19 22 26 28 29 28 25 24 26 25 22 24 24 19 9 3 7 7 0 0 3 6 7 8 13 18 15 8 8 8 4 8 14 9 5 7 6 4 5 2 2 3 4 3 3 2 2 2 2 2 5 6 5 5 4 4 5 4 4 3 3 3 3 4 2 5 7 2 3 8 10 9 3 4 3 4 6 5 5 6 6 8 9 9 12 15 16
21 20 21 24 26 27 29 26 24 27 26 25 28 25 14 5 3 7 5 3 1 6 8 8 9 12 16 14 9 9 9 6 10 12 8 8 8 8 9 8 6 5 5 7 5 2 3 4 4 4 3 6 5 5 4 2 3 4 4 5 4 4 3 4 5 4 6 6 2 3 2 7 11 8 6 6 4 6 6 5 6 6 8 11 12 15 18 17
24 23 22 23 24 27 26 23 23 27 27 29 30 19 7 6 6 8 9 5 2 3 6 8 10 13 16 13 9 10 9 6 10 10 8 9 8 9 11 11 11 7 4 7 7 3 3 2 5 5 3 8 9 6 5 3 6 8 7 7 5 5 5 6 6 5 6 3 3 4 2 5 8 6 11 16 13 11 10 8 8 9 12 18 19 19 19 17
27 26 26 26 25 23 20 18 23 27 29 32 24 9 5 8 7 10 14 8 3 3 5 8 11 13 13 8 6 11 7 4 10 9 7 9 7 8 10 11 12 7 1 5 6 7 6 4 8 9 5 12 13 6 4 5 7 9 7 6 6 6 6 6 5 5 6 3 1 4 3 4 3 1 3 8 10 13 14 13 12 13 19 25 27 25 23 23
28 30 30 30 27 23 20 18 22 27 32 31 16 5 8 8 7 12 12 5 4 4 6 9 12 11 9 2 2 7 3 2 9 8 6 9 8 8 9 10 13 10 5 6 4 6 8 5 7 7 5 14 14 4 2 5 5 6 4 5 6 5 6 5 2 1 2 5 4 5 4 5 4 3 3 3 5 11 14 14 12 15 24 28 28 29 29 29
27 33 35 35 34 28 25 24 22 27 34 25 9 6 9 8 8 9 6 6 7 8 11 10 8 7 8 3 1 4 0 1 8 6 5 8 8 9 10 9 13 13 10 8 3 3 5 2 3 3 2 7 5 0 2 2 2 4 5 5 2 2 3 5 2 3 2 6 6 5 7 8 7 8 8 11 10 10 10 10 12 19 25 22 21 29 33 32
24 30 34 39 39 32 29 28 23 28 34 20 7 8 8 9 11 6 4 10 12 14 11 7 6 7 8 5 4 7 4 3 7 6 5 6 6 9 11 9 12 17 16 11 3 2 4 1 1 1 1 1 4 4 1 2 2 3 4 4 3 4 2 4 4 1 3 8 6 4 9 10 6 6 6 12 12 11 10 11 14 19 19 14 18 27 30 28
23 25 29 34 39 37 35 32 27 30 28 12 9 12 8 10 14 9 8 12 15 15 9 6 7 7 9 8 7 10 9 6 8 7 6 6 5 10 13 9 10 17 19 11 2 1 3 3 1 1 0 2 3 1 3 1 0 0 1 1 2 2 4 5 5 5 5 8 7 6 11 10 8 6 5 9 12 11 13 13 13 14 13 12 15 19 19 18
22 21 23 29 34 37 39 36 33 32 19 7 11 12 9 12 13 9 13 15 12 12 10 9 8 7 9 9 7 10 11 9 9 8 7 6 5 9 14 10 8 15 19 13 4 1 3 5 3 0 1 3 4 5 6 5 3 1 3 3 1 2 3 4 5 4 4 7 7 8 9 8 7 7 8 9 12 12 13 11 9 10 11 10 9 10 11 12
23 17 17 28 30 30 36 35 30 25 12 8 12 8 6 11 9 9 14 14 11 10 9 12 12 9 10 10 8 9 9 8 9 7 6 8 6 6 12 12 8 10 18 17 8 3 3 4 3 1 0 3 5 7 9 9 8 6 6 7 5 3 1 2 4 4 4 5 6 7 10 8 2 2 4 6 8 10 10 7 6 8 8 7 6 7 9 12
21 13 11 25 28 27 34 28 17 11 5 7 10 5 4 5 5 12 15 11 9 8 5 9 12 11 9 11 11 10 8 7 9 8 6 9 10 5 9 14 12 11 13 13 9 7 5 4 5 4 3 7 5 3 5 6 6 7 8 9 10 8 5 3 6 5 3 4 6 6 10 10 1 5 2 4 5 6 4 2 4 7 6 6 5 7 10 13
15 7 6 17 23 29 31 18 6 5 4 8 11 4 1 1 2 9 12 9 8 6 3 5 11 12 10 11 11 11 9 8 9 10 7 10 13 8 9 15 17 18 14 8 10 11 6 3 6 6 5 5 2 3 2 1 1 3 5 6 8 7 7 8 7 5 4 4 5 4 9 11 1 6 2 3 3 2 3 5 5 7 8 6 5 11 13 14
16 9 5 10 19 31 29 10 3 6 3 7 10 7 6 3 0 3 6 9 8 5 5 5 8 11 10 10 11 12 11 9 10 12 10 10 12 8 10 16 17 18 13 6 6 9 5 3 6 6 4 3 2 3 2 1 1 4 3 3 5 8 10 8 3 2 3 5 5 4 9 11 0 6 2 3 3 4 7 9 9 8 7 5 7 14 16 16
18 13 8 8 15 28 24 6 4 7 5 5 9 11 11 6 3 4 5 9 9 6 8 8 8 11 9 7 9 12 12 9 10 13 11 9 7 5 11 18 17 14 11 5 7 11 8 5 6 6 5 5 5 4 3 3 3 5 6 6 8 11 11 6 1 2 4 9 11 8 10 11 1 5 2 4 5 6 7 10 12 11 7 5 11 15 15 18
14 11 10 15 23 29 22 10 7 6 5 8 9 13 14 8 7 9 6 5 5 5 6 6 6 6 5 5 7 9 13 12 10 11 10 8 4 3 8 15 17 15 10 4 10 14 8 4 7 8 8 9 8 5 5 6 5 4 7 11 13 14 15 9 3 5 9 14 13 9 11 14 6 4 4 3 4 6 7 8 10 10 7 10 15 15 15 20
8 7 6 13 26 32 25 19 15 6 4 8 6 9 15 12 10 13 11 6 4 4 2 1 4 6 6 9 9 7 13 14 7 5 8 8 4 2 5 12 15 16 9 6 12 12 3 2 8 10 11 12 9 3 5 9 8 8 11 14 15 15 16 11 6 9 13 12 11 11 15 20 19 11 5 3 4 6 6 7 8 9 10 14 17 16 18 22
5 5 5 7 13 19 17 17 17 9 7 11 6 6 15 15 9 10 13 10 7 7 3 3 2 6 6 11 12 9 12 12 5 4 7 7 3 2 3 7 10 11 7 8 12 9 2 3 9 12 14 15 13 8 7 12 11 13 13 14 16 16 15 13 12 16 15 10 11 15 16 18 23 22 15 9 8 7 6 9 12 13 13 15 19 20 22 24
7 4 7 8 5 5 8 13 16 13 13 13 7 5 13 16 11 9 12 11 7 8 6 2 5 8 8 10 10 7 10 9 5 5 7 6 4 3 3 2 3 4 4 5 7 6 2 5 8 10 13 16 16 13 8 10 10 12 13 15 17 17 17 17 18 21 17 11 13 17 17 17 20 24 19 12 12 13 13 14 16 16 15 17 21 23 25 27
11 6 5 9 6 1 5 12 15 14 14 13 7 6 11 16 15 10 8 8 7 9 9 7 10 12 11 10 7 6 8 8 7 7 5 6 5 4 4 2 1 2 3 3 3 2 2 5 8 9 11 14 17 15 12 11 11 11 13 15 16 19 22 22 22 22 20 18 18 21 23 21 21 23 19 16 19 23 25 22 16 15 18 21 24 26 29 31
12 9 5 6 6 3 4 9 11 10 11 12 9 7 9 15 18 13 9 10 10 9 11 13 14 13 13 13 9 8 8 8 9 8 5 6 5 4 4 3 2 2 1 3 2 0 3 4 5 5 6 12 17 17 15 12 11 11 11 13 16 20 22 22 19 17 17 19 21 24 24 22 20 20 20 26 29 26 26 24 18 20 24 25 28 31 32 34
16 12 7 5 5 5 4 5 7 6 7 9 9 8 9 14 17 12 8 11 12 9 12 17 15 10 11 14 12 13 15 12 9 4 1 3 5 4 4 3 5 5 2 3 2 1 2 2 1 2 5 11 15 16 13 9 8 10 13 16 20 21 17 14 13 13 15 17 18 18 17 16 17 15 15 24 26 20 22 25 23 28 32 29 29 33 34 35
22 16 9 5 4 6 6 5 6 7 5 6 9 9 9 12 14 11 5 8 13 13 13 16 14 7 7 12 16 21 24 19 12 4 1 1 0 2 2 4 6 6 5 4 3 3 4 3 2 4 6 9 15 13 7 5 6 8 14 20 20 18 15 13 14 18 19 15 12 12 13 14 18 18 15 20 19 15 21 27 26 29 32 30 29 31 35 36
Wind_Direction
202 201 200 199 196 194 195 196 199 199 201 202 203 204 205 205 204 203 201 198 196 193 192 190 192 195 197 201 198 198 195 192 191 158 189 205 202 194 196 197 199 195 185 184 170 147 142 165 170 151 148 165 166 161 171 166 164 185 217 230 233 211 169 147 173 147 78 123 146 162 175 191 176 179 206 213 218 221 212 207 218 229 228 235 232 213 210 193
203 203 202 203 199 197 197 198 200 201 202 203 205 207 207 208 206 205 203 200 198 196 194 192 194 196 200 203 201 201 201 201 185 198 207 199 191 190 191 188 190 189 183 178 166 162 178 195 181 170 176 172 160 163 168 163 177 216 247 231 241 92 77 57 83 93 40 111 151 163 180 199 182 170 189 212 217 209 220 218 216 228 229 236 237 228 225 214
203 204 204 204 203 200 199 200 201 202 203 204 206 208 209 209 208 206 204 202 200 198 196 195 196 199 204 203 202 200 200 203 188 209 212 194 191 187 183 182 178 177 183 180 171 183 199 197 183 185 192 179 165 172 175 178 192 234 253 236 182 78 77 64 67 81 52 57 150 162 175 194 178 158 179 214 229 211 227 226 209 217 220 231 239 235 232 231
204 205 205 205 204 203 202 202 202 203 204 205 207 208 210 210 209 206 204 203 201 200 198 197 198 200 205 202 202 193 195 215 208 217 210 188 186 176 173 170 169 173 174 175 172 177 180 183 185 188 201 180 158 176 177 176 192 195 233 283 43 67 86 88 82 82 67 60 152 152 163 193 182 168 187 213 236 222 231 234 222 227 221 222 233 239 237 237
204 205 206 206 205 204 203 204 203 204 206 207 208 209 209 209 209 206 203 203 201 201 198 199 201 202 205 200 196 181 187 210 197 203 195 179 173 162 161 157 162 163 157 167 170 170 172 181 181 190 210 176 160 183 153 148 200 170 154 16 37 10 64 99 99 97 82 79 140 152 168 187 174 195 210 216 233 232 239 228 218 237 237 213 227 241 242 240
204 206 206 206 206 205 204 204 204 206 207 207 209 209 209 208 207 204 203 202 200 201 198 199 201 202 203 198 195 189 203 251 178 182 179 170 162 152 150 146 151 150 154 159 162 172 172 185 190 194 203 171 173 182 110 147 213 209 113 77 46 19 57 99 110 127 104 99 150 165 171 171 187 218 218 222 234 245 306 256 213 233 244 231 240 248 246 243
204 206 207 206 206 206 205 206 206 207 207 207 209 208 209 207 204 203 202 201 200 200 197 198 201 201 202 196 197 202 223 267 185 176 170 163 157 151 146 135 133 137 152 151 164 185 184 197 202 198 188 155 163 138 106 156 224 274 116 111 66 40 65 86 100 144 123 109 149 155 185 195 216 230 211 226 238 244 264 264 252 253 255 247 249 253 250 247
204 206 207 206 207 206 205 207 207 208 207 208 208 208 208 205 203 201 200 200 199 199 196 197 199 199 201 192 193 211 218 217 185 173 166 163 158 154 151 137 128 130 144 152 176 192 197 208 200 199 189 117 125 129 128 171 201 287 112 116 97 73 81 85 101 134 123 140 155 175 211 209 224 255 260 244 245 245 252 258 258 259 261 253 248 252 250 247
203 206 206 206 207 206 206 207 208 209 208 209 208 207 207 204 202 199 200 200 199 198 195 197 198 199 203 190 200 220 200 188 180 172 167 165 162 164 163 150 142 135 134 156 183 187 200 210 195 206 158 94 124 128 146 224 118 78 112 123 122 104 97 102 119 131 136 162 153 197 213 201 234 271 269 251 245 242 241 248 255 257 257 254 249 250 250 249
203 205 206 206 207 207 208 209 209 210 209 210 209 208 206 201 200 198 199 199 198 197 194 197 196 199 201 188 213 223 178 178 178 174 174 172 170 173 178 184 174 131 125 206 195 189 204 209 188 190 113 105 122 103 14 295 65 98 118 117 114 114 116 128 141 142 169 167 168 236 235 201 230 258 258 244 228 230 236 243 253 255 252 253 251 249 249 248
204 204 205 206 208 208 209 210 210 212 211 211 210 208 205 199 198 198 198 198 198 195 194 197 195 198 194 192 226 224 172 182 182 181 183 181 182 182 176 181 158 134 119 230 201 187 202 186 169 173 145 139 127 92 66 86 91 110 128 127 128 129 131 162 168 157 196 177 168 264 275 247 212 234 245 238 217 219 226 238 250 258 252 248 251 250 249 248
208 207 206 206 208 209 210 212 214 215 214 213 212 209 204 199 197 196 197 197 195 194 194 195 194 195 190 201 234 216 175 185 183 186 190 190 192 185 167 138 135 139 124 168 187 173 176 160 156 141 121 149 142 113 102 104 92 121 163 187 161 177 188 181 175 167 211 199 123 295 277 248 211 229 244 235 232 232 231 240 244 258 255 246 250 251 252 251
210 209 208 207 208 210 212 215 216 217 216 215 214 210 204 199 198 196 195 194 193 193 194 194 194 193 195 205 217 185 176 184 184 189 193 194 192 178 164 142 136 138 130 160 170 154 161 161 161 134 124 132 113 115 117 109 113 154 192 261 188 206 206 174 165 162 205 194 120 236 275 260 209 223 237 224 233 243 244 249 243 247 252 251 252 253 257 255
209 209 210 208 208 210 213 216 218 218 217 217 216 210 205 200 199 196 193 192 190 191 191 192 192 192 201 212 198 187 181 179 185 190 192 194 194 182 170 160 150 147 132 146 158 148 152 148 143 142 130 105 108 124 127 131 180 174 182 251 224 238 173 147 156 169 197 191 159 219 261 277 250 200 196 212 235 243 244 250 247 242 242 248 255 257 258 258
206 207 208 208 208 209 212 216 216 217 217 217 215 211 206 202 199 195 192 190 189 190 190 192 191 190 204 219 202 196 190 184 187 190 192 191 187 183 182 175 157 160 144 131 144 140 137 132 123 121 110 112 133 150 156 160 195 200 207 212 204 240 156 136 153 177 195 162 176 213 251 265 271 127 154 217 239 239 248 256 254 249 240 241 256 264 263 261
204 202 204 205 205 207 210 212 213 213 213 214 213 210 206 202 197 193 191 189 189 189 187 189 192 194 207 204 198 201 197 195 191 188 191 189 183 182 186 178 164 163 144 136 140 132 132 129 121 120 121 136 165 195 186 183 204 197 232 236 174 217 213 146 140 181 199 135 186 217 258 273 229 119 150 223 248 235 244 259 258 258 252 243 254 266 267 263
202 198 200 200 200 204 206 208 209 208 209 209 208 206 201 197 193 191 190 188 188 186 185 187 189 199 227 205 192 202 204 200 191 187 189 187 183 179 179 173 165 146 125 133 136 134 132 126 131 135 160 200 207 209 203 214 215 189 216 246 212 234 253 221 139 147 179 202 219 221 245 263 262 244 222 234 253 243 246 260 262 264 261 248 251 264 268 266
197 192 194 195 196 199 201 203 202 201 203 201 199 196 191 189 188 187 185 184 181 178 186 187 178 195 229 202 196 203 207 204 192 188 185 184 184 179 178 173 161 144 140 147 138 148 153 148 176 182 186 205 199 207 213 227 251 202 193 223 241 227 241 259 211 143 172 208 240 234 242 257 263 265 257 252 249 243 251 263 264 263 262 253 248 258 265 266
192 189 190 191 193 192 193 194 193 194 192 188 186 181 178 176 177 182 182 179 173 173 192 185 182 200 176 185 196 202 203 198 188 188 183 183 184 176 175 170 161 160 170 181 152 157 175 166 209 222 196 202 202 214 225 359 10 5 181 261 275 245 246 259 130 126 184 230 245 245 250 261 267 267 266 264 255 246 252 261 262 259 258 254 246 249 259 263
189 187 187 188 188 185 185 185 185 184 180 178 173 167 165 163 163 176 182 183 186 197 230 179 189 220 64 172 191 187 179 180 182 188 187 184 176 164 165 160 159 182 206 201 143 153 213 204 207 216 224 221 205 207 209 47 35 355 309 278 269 272 275 273 113 120 174 256 258 254 255 262 268 271 270 270 265 258 256 257 257 253 249 250 245 243 254 261
184 183 183 183 183 180 179 179 178 176 174 173 169 164 166 171 169 170 176 193 209 208 212 180 193 209 135 166 185 173 153 163 178 188 188 182 174 166 170 171 180 200 177 116 105 134 208 228 224 219 248 33 161 167 112 73 9 259 256 261 259 251 267 283 76 128 161 232 263 267 267 262 262 268 270 269 265 255 254 255 255 254 251 250 246 244 251 259
179 180 178 178 179 178 177 175 174 172 171 172 172 170 175 181 182 173 175 197 216 209 216 194 197 209 192 164 181 176 156 152 175 187 184 175 179 184 174 181 210 197 147 135 139 153 210 230 227 167 84 71 78 112 185 225 232 234 238 249 260 256 275 280 130 120 170 225 273 285 281 271 261 262 262 259 256 252 252 254 256 258 258 255 251 248 248 251
178 179 178 178 177 177 176 175 174 173 173 173 176 178 182 186 188 180 183 196 209 209 220 211 197 206 198 177 178 179 173 168 167 181 184 176 181 193 175 187 214 182 158 188 198 204 217 221 191 99 105 120 120 148 181 206 218 225 232 240 247 260 304 271 139 83 238 232 291 299 286 273 254 249 252 250 251 255 257 257 257 256 255 256 255 254 250 244
179 178 179 179 179 180 177 177 177 177 178 178 180 184 186 192 193 180 185 210 215 203 217 217 207 201 197 188 183 184 189 193 167 181 190 179 173 187 185 197 211 192 192 205 213 229 224 78 71 115 159 185 163 164 184 207 222 218 220 235 253 265 274 270 319 327 284 236 299 305 286 272 231 226 237 241 242 247 252 253 252 249 250 254 256 257 256 250
181 180 180 181 183 183 180 181 183 182 183 185 185 186 186 191 192 185 184 228 248 187 210 218 214 214 210 204 185 180 201 207 181 186 189 181 175 181 180 196 208 209 210 204 218 240 226 86 112 146 163 195 187 185 195 210 233 220 212 225 252 276 288 283 312 333 300 248 106 338 302 289 166 201 217 184 197 229 237 238 245 250 251 250 252 260 262 260
185 182 182 182 185 185 182 185 188 187 189 190 189 187 185 180 182 187 187 234 244 177 164 197 204 212 212 203 171 162 215 212 194 194 185 182 182 176 167 170 201 235 206 190 223 253 168 119 148 151 156 176 195 215 196 198 241 239 203 226 254 268 281 283 293 301 292 292 314 26 306 290 254 230 231 203 206 237 240 240 247 254 256 246 248 262 269 269
191 185 183 184 186 184 181 186 191 190 190 192 191 187 182 172 167 173 181 246 241 168 145 171 187 192 189 179 170 172 209 167 172 186 182 183 184 183 198 173 164 231 158 152 229 218 138 158 172 159 163 175 199 222 187 191 230 243 84 7 231 233 247 257 278 261 280 313 294 196 202 275 283 245 220 211 221 241 244 249 255 259 262 252 246 261 273 275
199 190 188 187 187 185 183 189 194 192 190 189 187 183 177 170 164 160 184 243 201 144 147 163 171 178 166 163 171 176 128 139 154 178 179 185 183 187 224 200 187 197 170 179 222 172 130 173 183 174 182 197 194 82 160 189 218 73 95 40 90 120 243 229 264 269 286 314 288 192 168 255 285 222 175 190 205 220 234 248 257 265 270 253 239 260 277 278
204 194 194 191 188 187 186 191 193 191 191 187 181 178 171 165 162 159 212 235 156 120 139 158 161 168 158 160 172 158 132 144 139 168 175 185 181 181 233 211 211 196 174 205 236 59 57 166 196 190 199 206 128 47 39 199 199 130 136 102 92 112 124 190 254 284 289 283 266 181 163 248 287 221 152 175 197 198 221 241 247 265 275 262 260 279 284 278
212 202 198 194 191 190 192 194 192 189 187 183 177 172 165 163 165 184 202 208 170 121 108 148 163 162 158 162 176 175 164 131 98 144 160 183 182 188 202 162 209 180 158 237 260 93 68 50 359 225 213 117 100 67 27 31 116 140 149 130 126 170 171 211 240 286 272 266 257 179 174 211 277 204 145 169 189 181 202 221 227 259 272 275 281 284 283 276
218 212 204 200 196 194 196 197 190 184 182 179 174 167 163 163 186 206 194 119 246 147 125 152 158 158 168 172 170 178 176 135 137 153 153 164 176 186 178 154 151 175 186 236 215 141 130 136 140 153 125 117 112 90 50 53 139 158 170 177 188 205 194 212 207 179 241 253 274 146 182 215 239 212 140 147 157 177 207 219 236 265 274 279 283 280 277 274
213 215 215 208 200 198 200 198 187 181 179 175 171 167 164 169 220 226 193 89 173 175 157 169 166 165 179 181 170 169 171 156 164 174 171 172 181 184 191 191 171 181 225 217 190 145 192 195 142 117 148 177 162 122 94 79 188 204 195 182 211 230 217 233 211 193 238 241 139 105 157 240 245 249 254 249 206 202 220 230 254 274 275 276 279 277 274 272
212 211 218 217 207 201 200 196 187 183 179 173 170 167 175 196 199 214 200 164 166 161 140 152 163 171 177 181 178 166 170 172 170 181 180 178 195 199 204 210 192 198 244 197 178 163 193 191 149 146 179 205 203 179 167 184 190 198 192 180 203 223 231 242 227 227 249 235 142 138 160 256 266 266 243 238 232 221 220 225 242 256 262 268 270 269 271 271
216 210 213 220 218 202 193 191 186 186 179 171 168 164 199 209 194 205 212 198 135 84 103 136 150 166 174 180 174 161 165 180 168 174 180 181 203 208 207 215 209 218 246 179 184 183 209 242 177 174 164 180 199 220 195 163 174 198 202 197 215 225 237 249 245 251 267 290 205 167 180 249 274 22 219 232 228 221 224 226 231 247 254 260 263 266 272 276
221 216 209 216 221 203 189 188 185 187 178 167 166 180 193 201 200 209 212 179 129 111 111 131 142 160 174 161 147 165 173 200 173 177 183 189 207 206 201 206 205 206 194 194 195 178 217 246 162 151 134 165 184 218 149 134 167 198 195 216 236 240 244 259 280 264 320 322 269 196 226 257 260 267 197 161 189 204 218 226 225 241 248 253 262 266 271 277
223 221 210 211 215 203 190 188 186 186 177 166 172 202 195 205 208 211 193 134 136 134 127 136 147 167 175 162 198 190 234 98 167 180 196 203 225 219 211 206 195 197 196 194 185 164 211 257 114 109 96 161 181 209 153 160 184 175 181 206 226 12 272 246 249 96 102 281 263 213 249 268 281 272 210 182 203 203 202 220 222 234 244 250 260 264 269 274
212 217 212 209 211 205 192 187 187 185 179 177 198 199 202 218 213 211 148 135 139 137 138 154 171 185 181 174 196 186 172 141 165 185 191 189 227 221 214 214 195 196 202 203 217 214 210 241 91 157 167 130 15 22 83 341 16 150 187 193 107 49 329 245 256 261 225 260 264 224 254 266 273 279 190 178 208 215 207 221 228 235 242 246 255 264 272 278
206 214 218 215 214 211 201 193 190 183 178 183 211 205 215 221 215 207 147 138 142 147 163 180 172 188 188 180 185 177 173 169 172 190 185 173 216 205 194 203 201 199 203 204 227 256 208 227 194 21 308 113 76 138 199 215 277 337 304 219 147 216 222 201 224 253 244 255 268 255 264 264 235 238 227 188 189 199 212 219 226 237 236 232 251 267 277 284
209 213 224 225 218 213 212 206 192 179 171 177 202 207 219 215 215 199 155 149 156 167 187 193 179 193 196 182 162 162 178 183 167 179 191 183 204 190 180 184 194 199 197 194 205 167 177 226 220 41 337 116 132 207 206 175 169 309 302 255 225 249 244 208 204 235 249 251 273 281 278 267 231 230 243 212 187 192 207 207 212 232 230 224 242 265 276 290
205 204 230 228 216 213 217 208 185 171 171 195 199 200 214 210 204 181 166 163 172 185 202 203 190 189 194 184 160 157 185 195 172 181 200 186 191 195 186 182 173 184 189 190 201 175 149 219 222 127 96 192 185 204 202 187 180 193 214 213 199 181 247 280 229 225 251 258 270 282 278 271 234 171 210 196 190 196 191 184 197 213 222 215 216 253 282 298
201 193 228 223 215 214 210 199 176 166 179 212 212 202 197 208 189 186 185 181 191 202 215 215 205 196 187 182 174 165 178 193 185 195 205 191 201 212 184 182 170 157 171 187 201 198 179 204 205 168 183 211 207 191 204 203 190 195 203 203 202 190 177 225 227 208 213 248 253 269 277 273 146 110 161 154 164 188 178 207 208 180 182 201 224 276 298 300
216 207 201 203 211 209 199 188 157 151 176 213 218 224 286 350 159 185 184 180 202 213 204 222 220 208 190 185 182 167 169 189 191 198 211 207 213 213 178 180 172 157 158 181 200 197 188 197 213 206 200 205 180 66 64 325 297 247 235 219 210 193 187 209 222 202 182 221 256 276 276 274 147 107 137 131 128 203 211 213 191 160 170 192 273 303 299 295
226 235 197 184 205 201 192 183 151 163 195 218 213 238 272 288 141 179 178 182 197 199 192 211 218 211 203 191 184 169 169 190 194 198 214 218 216 205 174 176 169 160 166 179 180 175 167 199 221 221 212 183 135 100 89 59 271 250 249 232 220 207 204 213 233 231 187 202 223 227 252 264 310 93 111 117 134 212 211 194 173 161 179 204 292 296 289 291
223 231 213 191 203 198 191 180 159 183 208 191 192 221 239 258 258 220 197 193 194 189 196 204 205 212 215 194 187 182 178 189 199 200 212 217 206 165 160 171 171 170 180 185 165 161 164 191 206 216 228 208 191 200 201 168 188 230 225 209 218 218 212 210 282 285 244 225 219 219 245 256 261 90 131 150 157 191 203 198 186 171 176 253 276 275 283 291
220 225 212 198 197 197 200 201 176 178 188 175 185 208 217 237 236 222 228 218 207 199 203 200 182 188 191 179 195 193 188 202 213 203 207 209 183 110 156 173 180 188 194 173 159 165 171 189 186 199 221 218 212 214 201 177 172 211 223 210 211 215 212 213 213 222 241 239 226 221 246 258 257 127 138 152 175 189 190 202 203 189 200 256 261 262 281 287
211 216 209 196 196 198 204 201 185 167 158 177 185 195 203 215 214 211 224 237 235 221 230 275 165 168 168 179 194 199 198 211 215 185 203 204 164 103 175 180 190 199 195 155 158 162 155 221 194 206 223 224 230 221 128 133 158 194 208 206 207 210 211 216 221 220 232 244 240 228 239 259 265 250 215 186 196 203 199 207 222 222 226 245 253 261 277 280
217 214 199 189 200 204 203 188 181 184 180 182 184 176 195 208 207 199 208 219 227 210 209 352 197 189 184 182 191 199 198 205 194 157 198 198 136 80 176 188 200 198 177 162 166 155 107 223 210 221 232 236 251 253 161 145 173 200 199 200 205 208 208 211 222 229 230 239 250 241 234 249 263 263 256 249 243 241 226 218 229 234 234 246 255 260 269 275
221 238 213 204 210 213 205 187 180 190 188 182 190 188 192 203 200 188 196 207 217 198 185 258 235 217 211 195 193 194 187 192 198 193 192 174 136 118 140 176 219 186 157 166 165 147 151 220 216 222 237 247 258 260 217 181 198 206 198 198 200 202 206 211 223 232 231 231 249 256 250 247 260 265 261 258 262 267 266 260 253 244 240 251 256 255 262 270
221 254 239 218 224 247 232 206 184 185 186 177 190 203 195 201 202 197 188 184 202 201 187 209 227 222 222 219 211 200 188 188 205 210 183 154 154 160 160 166 211 172 150 140 142 142 173 217 228 229 247 256 258 260 247 232 237 230 216 212 205 201 204 210 221 229 231 235 245 256 261 258 258 263 269 276 276 277 282 281 269 252 253 261 263 260 261 266
220 233 222 221 233 245 255 222 190 185 184 177 190 204 193 199 202 201 189 176 189 198 191 210 223 214 217 227 227 227 221 212 220 223 193 175 182 181 190 187 132 122 156 138 120 208 180 208 233 232 255 262 259 260 256 253 262 260 248 242 232 222 213 209 217 224 228 236 239 246 258 262 259 262 273 277 276 277 280 275 265 262 265 268 269 268 266 266
220 222 212 223 234 208 215 219 194 195 188 179 191 191 189 206 203 193 191 192 197 192 187 206 216 201 210 224 224 233 237 232 240 259 115 184 209 198 210 198 136 130 155 159 132 124 170 205 245 203 242 254 253 255 258 263 273 274 267 252 240 236 229 219 219 219 222 230 236 242 252 260 264 266 270 272 273 274 272 270 268 269 270 269 269 271 272 271
222 223 217 219 237 208 203 211 202 204 199 191 199 182 178 208 203 184 187 212 211 207 199 205 206 184 197 214 216 228 233 232 242 262 87 98 96 133 173 180 156 151 161 169 155 150 170 187 208 204 222 248 252 252 252 249 250 249 248 243 236 236 239 238 233 226 222 223 231 239 241 249 264 270 268 267 270 268 267 270 270 269 269 269 267 270 275 275